View from above orbital plane
|
View from above satellite
|
Ground track
|
The orbit data is extracted from the following two-line orbital elements,
1 19046U 88032B 21019.13265620 .00000729 00000-0 58026-4 0 9992
2 19046 97.3907 36.5002 0036959 190.8297 169.2137 15.02827332769645
Epoch (UTC): | 19 January 2021 03:11:01 |
Eccentricity: | 0.0036959 |
inclination: | 97.3907° |
perigee height: | 532 km |
apogee height: | 584 km |
right ascension of ascending node: | 36.5002° |
argument of perigee: | 190.8297° |
revolutions per day: | 15.02827332 |
mean anomaly at epoch: | 169.2137° |
orbit number at epoch: | 76964 |
The dashed part of the orbit path shows where the satellite is in the earth's shadow,
|
|